STARLINK-33596 (62758 NORAD) Tracking and Keplerian Element Data

This shows tracking and keplerian element data for the satellite.

Feedback or suggestion? Click here.




ElementValue
Catalog62758
NameSTARLINK-33596
Epoch Orbit5223
Epoch Day354.17817857
Epoch Year2025
RAAN332.0587
Inclination53.16
Eccentricity0.00012
Argument of Perigee89.996
Mean Anonmoly270.1178
Mean Motion15.30200215
Decay Rate0.0002418
L11 62758U 25015A 25354.17817857 .00024180 00000+0 82585-3 0 9999
L22 62758 53.1600 332.0587 0001200 89.9960 270.1178 15.30200215 52234



Live tracking and technical data element details for STARLINK-33596 (NORAD 62758). STARLINK-33596 can be tracked NOW for your location showing map with azimuth and elevation plus other details from your city location.







IsCatalogInMostPopularTable: catalog: 62758, numindb: 244
Update: records affected: 1



GetName: 62758 STARLINK-33596

Hit Count: updated at: Sat, 07 Mar 2026 06:47:04 GMT